TimeCST,TemperatureF,Dew PointF,Humidity,Sea Level PressureIn,VisibilityMPH,Wind Direction,Wind SpeedMPH,Gust SpeedMPH,PrecipitationIn,Events,Conditions,WindDirDegrees,DateUTC
12:53 AM,43.0,35.1,74,30.02,10.0,South,6.9,-,N/A,,Clear,190,2013-02-18 06:53:00
1:53 AM,43.0,36.0,76,30.01,10.0,South,9.2,-,N/A,,Clear,180,2013-02-18 07:53:00
2:53 AM,50.0,41.0,71,30.00,10.0,SSW,20.7,26.5,N/A,,Clear,200,2013-02-18 08:53:00
3:53 AM,50.0,42.1,74,30.00,10.0,SSW,16.1,28.8,N/A,,Clear,200,2013-02-18 09:53:00
4:53 AM,50.0,42.1,74,30.00,10.0,SSW,17.3,23.0,N/A,,Clear,200,2013-02-18 10:53:00
5:53 AM,46.0,41.0,83,30.00,10.0,South,11.5,-,N/A,,Clear,170,2013-02-18 11:53:00
6:53 AM,46.0,41.0,83,30.00,10.0,South,11.5,-,N/A,,Clear,170,2013-02-18 12:53:00
7:53 AM,46.4,41.0,81,29.98,10.0,South,17.3,-,N/A,,Mostly Cloudy,180,2013-02-18 13:53:00
8:53 AM,46.9,39.9,77,29.99,10.0,South,18.4,27.6,N/A,,Overcast,180,2013-02-18 14:53:00
9:53 AM,50.0,42.1,74,29.96,10.0,South,13.8,23.0,N/A,,Overcast,180,2013-02-18 15:53:00
10:53 AM,52.0,44.1,74,29.93,10.0,South,25.3,34.5,0.00,,Overcast,180,2013-02-18 16:53:00
11:53 AM,50.0,46.0,86,29.91,4.0,South,19.6,28.8,0.06,Rain,Rain,180,2013-02-18 17:53:00
12:33 PM,51.8,48.2,88,29.88,8.0,South,20.7,29.9,0.03,Rain,Light Rain,180,2013-02-18 18:33:00
12:53 PM,51.1,48.0,89,29.86,10.0,South,17.3,26.5,0.04,Thunderstorm,Overcast,180,2013-02-18 18:53:00
1:08 PM,51.8,48.2,88,29.86,6.0,South,19.6,27.6,0.02,Rain,Light Rain,190,2013-02-18 19:08:00
1:21 PM,51.8,48.2,88,29.84,2.5,South,20.7,27.6,0.08,Rain,Rain,180,2013-02-18 19:21:00
1:29 PM,51.8,48.2,88,29.83,10.0,South,16.1,27.6,0.08,Rain,Light Rain,170,2013-02-18 19:29:00
1:36 PM,51.8,48.2,88,29.82,10.0,South,16.1,24.2,0.08,Rain-Thunderstorm,Light Rain,180,2013-02-18 19:36:00
1:51 PM,51.8,48.2,88,29.82,10.0,South,15.0,-,0.08,Rain,Light Rain,190,2013-02-18 19:51:00
1:53 PM,52.0,48.9,89,29.82,9.0,South,16.1,-,0.09,Rain,Light Rain,190,2013-02-18 19:53:00
2:53 PM,55.0,50.0,83,29.77,10.0,South,28.8,35.7,0.00,,Overcast,180,2013-02-18 20:53:00
3:39 PM,55.4,50.0,82,29.75,10.0,South,21.9,29.9,0.00,,Overcast,180,2013-02-18 21:39:00
3:53 PM,55.9,48.9,77,29.74,10.0,South,20.7,32.2,0.00,,Overcast,180,2013-02-18 21:53:00
4:34 PM,55.4,50.0,82,29.71,10.0,South,17.3,27.6,0.00,Rain-Thunderstorm,Light Rain,180,2013-02-18 22:34:00
4:44 PM,55.4,50.0,82,29.72,10.0,South,16.1,24.2,0.01,Rain-Thunderstorm,Light Rain,180,2013-02-18 22:44:00
4:53 PM,55.4,50.0,82,29.72,6.0,South,15.0,23.0,N/A,Rain-Thunderstorm,Light Thunderstorms and Rain,190,2013-02-18 22:53:00
5:09 PM,55.4,50.0,82,29.72,10.0,South,19.6,28.8,0.00,,Overcast,180,2013-02-18 23:09:00
5:24 PM,55.4,51.8,88,29.70,10.0,South,19.6,26.5,N/A,Rain,Light Rain,180,2013-02-18 23:24:00
5:53 PM,55.0,50.0,83,29.71,10.0,South,18.4,28.8,0.01,,Overcast,190,2013-02-18 23:53:00
6:12 PM,53.6,51.8,94,29.73,10.0,SW,16.1,-,0.00,Rain-Thunderstorm,Light Thunderstorms and Rain,220,2013-02-19 00:12:00
6:24 PM,51.8,46.4,82,29.78,2.5,West,23.0,36.8,0.10,Rain-Thunderstorm,Heavy Thunderstorms and Rain,280,2013-02-19 00:24:00
6:38 PM,51.8,46.4,82,29.77,1.8,West,18.4,23.0,0.30,Rain-Thunderstorm,Heavy Thunderstorms and Rain,280,2013-02-19 00:38:00
6:41 PM,51.8,48.2,88,29.78,2.0,West,20.7,28.8,0.34,Rain-Thunderstorm,Heavy Thunderstorms and Rain,270,2013-02-19 00:41:00
6:49 PM,51.8,48.2,88,29.76,3.0,WSW,11.5,28.8,0.39,Rain-Thunderstorm,Heavy Thunderstorms and Rain,240,2013-02-19 00:49:00
6:53 PM,52.0,48.9,89,29.75,4.0,SW,13.8,27.6,0.40,Rain-Thunderstorm,Thunderstorms and Rain,220,2013-02-19 00:53:00
7:02 PM,51.8,48.2,88,29.75,7.0,SSW,15.0,-,0.02,Rain-Thunderstorm,Light Thunderstorms and Rain,200,2013-02-19 01:02:00
7:17 PM,51.8,48.2,88,29.75,10.0,SSW,18.4,-,0.03,Rain,Light Rain,210,2013-02-19 01:17:00
7:53 PM,53.1,48.9,86,29.77,10.0,WSW,10.4,-,0.03,,Mostly Cloudy,240,2013-02-19 01:53:00
8:53 PM,52.0,45.0,77,29.82,10.0,West,18.4,27.6,N/A,,Partly Cloudy,280,2013-02-19 02:53:00
9:16 PM,50.0,42.8,76,29.85,10.0,WNW,20.7,31.1,N/A,,Mostly Cloudy,290,2013-02-19 03:16:00
9:53 PM,48.0,39.0,71,29.90,10.0,WNW,20.7,28.8,N/A,,Overcast,300,2013-02-19 03:53:00
10:38 PM,46.4,37.4,71,29.93,10.0,WNW,11.5,-,N/A,,Scattered Clouds,300,2013-02-19 04:38:00
10:53 PM,46.0,36.0,68,29.94,10.0,WNW,13.8,23.0,N/A,,Clear,300,2013-02-19 04:53:00
11:53 PM,44.1,36.0,73,29.98,10.0,NW,5.8,-,N/A,,Clear,310,2013-02-19 05:53:00